Weather History for Roseburg, OR

Change the Weather History Date:

Monday, September 2, 2013

  Actual Average Record
Temperature  
Mean Temperature 72 °F 68 °F  
Max Temperature 83 °F 82 °F 104 °F (1988)
Min Temperature 61 °F 54 °F 42 °F (1975)
Degree Days  
Heating Degree Days 0 1  
Month to date heating degree days 0 2  
Since 1 July heating degree days 1 23  
Cooling Degree Days 7 4  
Month to date cooling degree days 15 8  
Year to date cooling degree days 717 419  
Growing Degree Days 22 (Base 50)    
Moisture  
Dew Point 54 °F    
Average Humidity 58    
Maximum Humidity 84    
Minimum Humidity 31    
Precipitation  
Precipitation 0.00 in 0.03 in 0.59 in (1941)
Month to date precipitation 0.00 0.05  
Year to date precipitation 8.54 19.70  
Sea Level Pressure  
Sea Level Pressure 29.90 in    
Wind  
Wind Speed 4 mph (WNW)    
Max Wind Speed 13 mph    
Max Gust Speed 22 mph    
Visibility 10 miles    
Events      
T = Trace of Precipitation, MM = Missing Value Source: NWS Daily Summary

Daily Weather History Graph

Daily Weather History Graph

Search for Another Location

Airport:

Trip Planner

Search our weather history database for the weather conditions in past years. The results will help you decide how hot, cold, wet, or windy it might be!

Date:

Astronomy

Sep. 02, 2013 Rise Set
Actual Time 6:39 AM PDT 7:46 PM PDT
Civil Twilight 6:09 AM PDT 8:15 PM PDT
Nautical Twilight 5:34 AM PDT 8:50 PM PDT
Astronomical Twilight 4:57 AM PDT 9:26 PM PDT
Moon 3:58 AM PDT (9/2) 6:04 PM PDT (9/2)
Length of Visible Light 14h 05m
Length of Day
13h 06m
Waning Crescent, 7% of the Moon is Illuminated
Sep 2
Waning Crescent
Sep 5
New
Sep 12
First Quarter
Sep 19
Full
Sep 26
Last Quarter

Hourly Weather History & Observations

Time (PDT) Temp. Dew Point Humidity Pressure Visibility Wind Dir Wind Speed Gust Speed Precip Events Conditions
12:53 AM 66.0 °F 54.0 °F 65% 29.89 in 10.0 mi Calm Calm - N/A   Clear
1:53 AM 64.9 °F 54.0 °F 68% 29.89 in 10.0 mi Calm Calm - N/A   Clear
2:53 AM 64.0 °F 55.0 °F 73% 29.88 in 10.0 mi Calm Calm - N/A   Overcast
3:53 AM 63.0 °F 55.9 °F 78% 29.88 in 10.0 mi Calm Calm - N/A   Overcast
4:53 AM 63.0 °F 55.9 °F 78% 29.88 in 10.0 mi Calm Calm - N/A   Overcast
5:53 AM 63.0 °F 55.9 °F 78% 29.88 in 10.0 mi Calm Calm - N/A   Overcast
6:53 AM 61.0 °F 55.9 °F 83% 29.90 in 10.0 mi SW 3.5 mph - N/A   Partly Cloudy
7:53 AM 61.0 °F 55.9 °F 83% 29.91 in 10.0 mi Calm Calm - N/A   Partly Cloudy
8:53 AM 64.9 °F 55.9 °F 73% 29.92 in 10.0 mi Calm Calm - N/A   Partly Cloudy
9:53 AM 68.0 °F 55.9 °F 65% 29.92 in 10.0 mi Calm Calm - N/A   Overcast
10:53 AM 72.0 °F 57.0 °F 59% 29.92 in 10.0 mi Calm Calm - N/A   Mostly Cloudy
11:53 AM 73.9 °F 55.9 °F 53% 29.91 in 10.0 mi WSW 5.8 mph - N/A   Overcast
12:53 PM 77.0 °F 54.0 °F 45% 29.91 in 10.0 mi WSW 9.2 mph - N/A   Partly Cloudy
1:53 PM 75.9 °F 53.1 °F 45% 29.90 in 10.0 mi West 6.9 mph - N/A   Mostly Cloudy
2:53 PM 79.0 °F 52.0 °F 39% 29.88 in 10.0 mi Calm Calm - N/A   Partly Cloudy
3:53 PM 82.0 °F 48.9 °F 31% 29.86 in 10.0 mi WSW 8.1 mph 17.3 mph N/A   Scattered Clouds
4:53 PM 82.0 °F 48.9 °F 31% 29.86 in 10.0 mi WSW 8.1 mph - N/A   Partly Cloudy
5:53 PM 80.1 °F 48.9 °F 34% 29.86 in 10.0 mi NW 8.1 mph - N/A   Overcast
6:53 PM 77.0 °F 55.0 °F 47% 29.87 in 10.0 mi NNW 10.4 mph - N/A   Overcast
7:53 PM 75.0 °F 55.0 °F 50% 29.89 in 10.0 mi NNW 6.9 mph - N/A   Overcast
8:53 PM 73.0 °F 55.0 °F 53% 29.91 in 10.0 mi North 5.8 mph - N/A   Mostly Cloudy
9:53 PM 71.1 °F 55.0 °F 57% 29.92 in 10.0 mi North 6.9 mph - N/A   Overcast
10:53 PM 70.0 °F 55.0 °F 59% 29.94 in 10.0 mi North 3.5 mph - N/A   Overcast
11:53 PM 69.1 °F 55.0 °F 61% 29.93 in 10.0 mi NNW 3.5 mph - N/A   Overcast